Location: B?dargowo
(53.3916°N, 14.4413°E)
Time: 09:05:22
(UTC+00:00)

GEOS 3 Rocket - Pass Details

Date: 05 February 2023
Orbit: 772 x 846 km, 115.0° (Epoch: 19 March)

Event Time Altitude Azimuth Distance (km) Brightness Sun altitude
Exits shadow 18:51:38 39° 17° (NNE) 1,223 4.4 -26.8°
Drops below altitude 10° 18:56:13 10° 319° (NW) 2,450 6.7 -27.5°
Sets 18:58:40 0° 312° (NW) 3,395 7.7 -27.8°
